"startDT [UTC]","vpos","CH4 [ppm]","stdev(CH4) [ppm]","CO2 [ppm]","stdev(CO2) [ppm]","H2O_reported [%]","stdev(H2O_reported)","CavityPressure [torr]","CavityTemp [C]","OutletValve","CH4_dry [ppm]","CO2_dry [ppm]","DasTemp [C]","EtalonTemp [C]","WarmBoxTemp [C]","MPVPosition","T_ECpre [C]","T_EC1 [C]","T_EC2 [C]","p_inlet [hPa]","p_in [hPa]","p_out [hPa]","T_inlet [C]","RH_inlet [%]","dwpt_inlet [C]","T_vent [C]","RH_vent [%]","dwpt_vent [C]","flow_vent [l min-1]","flow_inlet [l min-1]","dwpt_sample [C]","T_room [C]"
2016-05-13 00:00:00,0.0,1.91528,0.00036,406.205,0.036,0.2897,0.0019,140.001,45.000,31778.95061,1.92079,407.631,37.439,45.069,45.000,0.00,0.08,-272.77,-272.84,-9,522,-949,21.7,8.3,-13.5,21.9,8.3,-13.5,5.73,1.97,-10.8,28.1
2016-05-13 00:01:00,0.0,1.91533,0.00035,406.206,0.030,0.2913,0.0023,140.001,45.000,31778.69685,1.92086,407.640,37.438,45.069,45.000,0.00,0.09,-272.78,-272.83,-8,522,-949,21.8,8.3,-13.5,21.9,8.3,-13.4,5.73,1.86,-10.8,28.2
2016-05-13 00:02:00,0.0,1.91551,0.00034,406.219,0.032,0.2891,0.0027,140.000,45.000,31776.87502,1.92099,407.642,37.438,45.069,45.000,0.00,0.09,-272.77,-272.83,-10,522,-949,21.8,8.3,-13.5,21.9,8.3,-13.4,5.73,2.04,-10.8,28.1
2016-05-13 00:03:00,0.0,1.91542,0.00045,406.224,0.031,0.2880,0.0022,139.998,45.000,31776.97818,1.92089,407.642,37.437,45.069,45.000,0.00,0.09,-272.78,-272.82,-8,522,-949,21.8,8.2,-13.6,21.9,8.2,-13.5,5.73,1.80,-10.8,28.1
2016-05-13 00:04:00,0.0,1.91526,0.00041,406.221,0.044,0.2865,0.0029,140.001,45.000,31779.45996,1.92071,407.631,37.452,45.069,45.000,0.00,0.09,-272.78,-272.84,-9,522,-949,21.8,8.2,-13.7,21.9,8.2,-13.5,5.73,2.09,-10.8,28.1
2016-05-13 00:05:00,0.0,1.91535,0.00029,406.271,0.038,0.2841,0.0018,140.000,45.000,31779.61430,1.92073,407.669,37.495,45.069,45.000,0.00,0.09,-272.77,-272.83,-9,522,-949,21.7,8.1,-13.8,21.9,8.1,-13.6,5.73,1.76,-10.8,28.1
2016-05-13 00:06:00,0.0,1.91545,0.00033,406.257,0.035,0.2851,0.0042,139.999,45.000,31778.49042,1.92089,407.663,37.502,45.069,45.000,0.00,0.08,-272.77,-272.83,-8,522,-949,21.7,8.1,-13.8,21.9,8.2,-13.6,5.73,2.12,-10.8,28.2
2016-05-13 00:07:00,0.0,1.91572,0.00038,406.235,0.029,0.2819,0.0020,139.998,45.000,31778.34567,1.92107,407.622,37.506,45.069,45.000,0.00,0.09,-272.77,-272.83,-10,522,-949,21.8,8.0,-13.8,21.9,8.1,-13.7,5.73,1.74,-10.8,28.2
2016-05-13 00:08:00,0.0,1.91551,0.00037,406.252,0.035,0.2830,0.0021,139.998,45.000,31778.25669,1.92086,407.644,37.541,45.069,45.000,0.00,0.08,-272.78,-272.83,-8,522,-949,21.8,8.1,-13.8,21.9,8.1,-13.6,5.73,2.13,-10.8,28.2
2016-05-13 00:09:00,0.0,1.91535,0.00052,406.227,0.027,0.2824,0.0019,140.002,45.000,31782.64008,1.92074,407.617,37.561,45.069,45.000,0.00,0.09,-272.76,-272.83,-9,522,-949,21.8,8.1,-13.8,21.9,8.1,-13.7,5.73,1.73,-10.8,28.1
2016-05-13 00:10:00,0.0,1.91514,0.00048,406.202,0.035,0.2872,0.0029,139.998,45.000,31783.04379,1.92060,407.617,37.563,45.069,45.000,0.00,0.08,-272.78,-272.84,-9,522,-949,21.8,8.2,-13.7,21.9,8.2,-13.6,5.73,2.12,-10.8,28.2
2016-05-13 00:11:00,0.0,1.91508,0.00030,406.193,0.027,0.2870,0.0019,139.999,45.000,31784.83644,1.92052,407.605,37.556,45.069,45.000,0.00,0.09,-272.77,-272.84,-9,522,-949,21.8,8.2,-13.6,22.0,8.2,-13.5,5.73,1.77,-10.8,28.2
2016-05-13 00:12:00,0.0,1.91529,0.00041,406.215,0.041,0.2867,0.0024,140.000,45.000,31783.67058,1.92073,407.626,37.548,45.069,45.000,0.00,0.09,-272.76,-272.83,-10,522,-949,21.9,8.2,-13.6,22.0,8.2,-13.5,5.73,2.09,-10.8,28.2
2016-05-13 00:13:00,0.0,1.91524,0.00043,406.237,0.039,0.2836,0.0035,140.000,45.000,31783.96053,1.92063,407.634,37.524,45.069,45.000,0.00,0.09,-272.77,-272.83,-8,522,-949,21.8,8.1,-13.8,22.0,8.2,-13.6,5.73,1.80,-10.8,28.2
2016-05-13 00:14:00,0.0,1.91533,0.00036,406.250,0.026,0.2846,0.0026,140.000,45.000,31785.15496,1.92074,407.651,37.506,45.069,45.000,0.00,0.09,-272.78,-272.83,-10,522,-949,21.9,8.1,-13.7,22.0,8.1,-13.6,5.73,2.03,-10.8,28.2
2016-05-13 00:15:00,0.0,1.91520,0.00051,406.254,0.048,0.2836,0.0023,139.999,45.000,31785.57870,1.92058,407.648,37.509,45.070,45.000,0.00,0.09,-272.76,-272.83,-9,522,-949,21.9,8.0,-13.8,21.9,8.1,-13.7,5.73,1.87,-10.8,28.2
2016-05-13 00:16:00,0.0,1.91516,0.00040,406.235,0.051,0.2861,0.0024,139.997,45.000,31785.40413,1.92060,407.645,37.534,45.070,45.001,0.00,0.09,-272.78,-272.83,-9,522,-949,21.8,8.1,-13.7,22.0,8.2,-13.5,5.73,1.97,-10.2,28.2
2016-05-13 00:17:00,0.0,1.91522,0.00049,406.251,0.028,0.2835,0.0022,139.999,45.000,31786.81883,1.92060,407.645,37.556,45.070,45.001,0.00,0.09,-272.78,-272.84,-10,522,-949,21.8,8.1,-13.7,22.0,8.1,-13.6,5.73,1.92,-9.8,28.3
2016-05-13 00:18:00,0.0,1.91512,0.00032,406.218,0.041,0.2858,0.0021,139.999,45.000,31787.84935,1.92056,407.627,37.564,45.069,45.000,0.00,0.09,-272.77,-272.83,-8,522,-949,21.8,8.1,-13.7,22.0,8.2,-13.5,5.73,1.92,-9.9,28.2
2016-05-13 00:19:00,0.0,1.91533,0.00036,406.214,0.037,0.2863,0.0021,139.998,45.000,31786.84353,1.92075,407.623,37.564,45.069,45.000,0.00,0.09,-272.76,-272.83,-10,522,-949,21.9,8.1,-13.7,22.0,8.2,-13.5,5.73,1.96,-10.0,28.2
2016-05-13 00:20:00,0.0,1.91531,0.00030,406.200,0.035,0.2880,0.0020,140.002,45.000,31789.32059,1.92079,407.616,37.594,45.069,45.000,0.00,0.09,-272.78,-272.83,-8,522,-949,21.9,8.1,-13.6,22.1,8.2,-13.4,5.73,1.90,-10.0,28.3
2016-05-13 00:21:00,0.0,1.91545,0.00027,406.219,0.037,0.2857,0.0021,139.997,45.000,31787.69911,1.92088,407.626,37.625,45.069,45.000,0.00,0.09,-272.77,-272.83,-10,522,-949,21.9,8.1,-13.7,22.0,8.1,-13.5,5.73,1.98,-10.1,28.2
2016-05-13 00:22:00,0.0,1.91534,0.00035,406.205,0.033,0.2862,0.0017,140.000,45.000,31787.73533,1.92078,407.613,37.625,45.069,45.000,0.00,0.09,-272.77,-272.82,-9,522,-949,21.9,8.1,-13.7,22.0,8.1,-13.6,5.73,1.87,-10.1,28.2
2016-05-13 00:23:00,0.0,1.91543,0.00041,406.219,0.033,0.2863,0.0025,139.997,45.000,31788.40726,1.92088,407.629,37.625,45.069,45.000,0.00,0.09,-272.77,-272.83,-9,522,-949,21.9,8.1,-13.7,22.0,8.2,-13.5,5.73,1.99,-10.2,28.3
2016-05-13 00:24:00,0.0,1.91525,0.00034,406.216,0.039,0.2871,0.0032,140.000,45.000,31787.96764,1.92069,407.629,37.602,45.069,45.000,0.00,0.09,-272.77,-272.83,-9,522,-949,21.9,8.1,-13.7,22.0,8.2,-13.5,5.73,1.87,-10.2,28.3
2016-05-13 00:25:00,0.0,1.91543,0.00048,406.222,0.033,0.2848,0.0026,139.999,45.000,31787.80729,1.92085,407.624,37.607,45.069,45.000,0.00,0.09,-272.76,-272.83,-8,522,-949,21.9,8.0,-13.8,22.1,8.1,-13.6,5.73,2.01,-10.2,28.3
2016-05-13 00:26:00,0.0,1.91502,0.00030,406.199,0.026,0.2843,0.0024,140.000,45.000,31791.55843,1.92043,407.599,37.620,45.069,45.000,0.00,0.09,-272.77,-272.83,-10,522,-949,21.9,8.0,-13.8,22.0,8.1,-13.6,5.73,1.85,-10.3,28.2
2016-05-13 00:27:00,0.0,1.91514,0.00034,406.191,0.040,0.2843,0.0028,140.002,45.000,31794.11875,1.92056,407.591,37.617,45.069,45.000,0.00,0.08,-272.77,-272.84,-8,522,-949,22.0,8.0,-13.8,22.1,8.1,-13.6,5.73,2.02,-10.3,28.3
2016-05-13 00:28:00,0.0,1.91516,0.00028,406.189,0.025,0.2855,0.0025,139.997,45.000,31793.51084,1.92056,407.593,37.598,45.069,45.000,0.00,0.09,-272.77,-272.83,-10,522,-949,21.9,8.1,-13.7,22.0,8.1,-13.6,5.73,1.84,-10.3,28.3
2016-05-13 00:29:00,0.0,1.91522,0.00040,406.201,0.027,0.2876,0.0037,140.000,45.000,31791.83626,1.92067,407.617,37.611,45.069,45.000,0.00,0.09,-272.77,-272.83,-8,522,-949,22.0,8.1,-13.6,22.1,8.1,-13.5,5.73,2.03,-10.3,28.3
2016-05-13 00:30:00,0.0,1.91517,0.00036,406.214,0.031,0.2845,0.0018,140.000,45.000,31792.83539,1.92058,407.614,37.621,45.069,45.000,0.00,0.09,-272.78,-272.83,-9,522,-949,22.0,8.0,-13.7,22.1,8.1,-13.5,5.73,1.83,-10.3,28.3
2016-05-13 00:31:00,0.0,1.91513,0.00039,406.233,0.033,0.2877,0.0021,140.002,45.000,31791.15698,1.92057,407.650,37.625,45.069,45.000,0.00,0.09,-272.78,-272.84,-9,523,-949,22.0,8.1,-13.7,22.1,8.2,-13.4,5.73,2.03,-10.4,28.3
2016-05-13 00:32:00,0.0,1.91517,0.00054,406.208,0.029,0.2897,0.0021,139.998,45.000,31793.48712,1.92070,407.635,37.655,45.069,45.000,0.00,0.09,-272.77,-272.82,-9,522,-949,22.0,8.1,-13.6,22.1,8.2,-13.4,5.73,1.83,-10.4,28.3
2016-05-13 00:33:00,0.0,1.91541,0.00038,406.214,0.028,0.2876,0.0028,140.002,45.000,31793.14969,1.92088,407.630,37.685,45.069,45.000,0.00,0.09,-272.77,-272.83,-10,523,-949,22.0,8.1,-13.6,22.1,8.1,-13.5,5.73,2.05,-10.4,28.3
2016-05-13 00:34:00,0.0,1.91518,0.00049,406.205,0.033,0.2908,0.0030,140.002,45.000,31795.22396,1.92068,407.638,37.688,45.069,45.000,0.00,0.09,-272.77,-272.83,-8,522,-949,22.0,8.2,-13.5,22.1,8.2,-13.4,5.73,1.81,-10.4,28.3
2016-05-13 00:35:00,0.0,1.91520,0.00030,406.196,0.032,0.2924,0.0018,140.002,45.000,31795.20679,1.92075,407.634,37.682,45.069,45.000,0.00,0.09,-272.78,-272.82,-10,522,-949,22.0,8.2,-13.4,22.1,8.2,-13.4,5.73,2.07,-10.4,28.4
2016-05-13 00:36:00,0.0,1.91533,0.00050,406.191,0.023,0.2910,0.0022,139.998,45.000,31794.13044,1.92086,407.624,37.658,45.069,45.000,0.00,0.09,-272.77,-272.83,-8,523,-949,22.0,8.2,-13.5,22.1,8.3,-13.3,5.73,1.78,-10.4,28.4
2016-05-13 00:37:00,0.0,1.91507,0.00035,406.203,0.032,0.2900,0.0037,139.999,45.000,31796.30302,1.92063,407.631,37.646,45.069,45.000,0.00,0.09,-272.77,-272.84,-10,522,-949,22.0,8.2,-13.5,22.1,8.3,-13.3,5.73,2.08,-10.4,28.4
2016-05-13 00:38:00,0.0,1.91473,0.00036,406.195,0.023,0.2912,0.0044,139.998,45.000,31797.83513,1.92025,407.629,37.673,45.069,45.000,0.00,0.09,-272.77,-272.83,-9,523,-949,22.0,8.1,-13.5,22.2,8.2,-13.4,5.73,1.77,-10.4,28.3
2016-05-13 00:39:00,0.0,1.91483,0.00039,406.192,0.035,0.2947,0.0043,139.997,45.000,31798.21964,1.92041,407.642,37.672,45.069,45.000,0.00,0.09,-272.76,-272.83,-9,522,-950,22.0,8.3,-13.3,22.2,8.4,-13.1,5.73,2.10,-10.4,28.4
2016-05-13 00:40:00,0.0,1.91514,0.00029,406.205,0.033,0.2881,0.0014,139.996,45.000,31797.57297,1.92062,407.623,37.680,45.069,45.000,0.00,0.09,-272.77,-272.83,-10,523,-949,22.1,8.1,-13.6,22.2,8.2,-13.4,5.73,1.76,-10.4,28.4
2016-05-13 00:41:00,0.0,1.91500,0.00042,406.204,0.032,0.2866,0.0017,140.001,45.000,31800.23833,1.92045,407.613,37.675,45.069,45.000,0.00,0.08,-272.77,-272.84,-8,523,-950,22.1,8.1,-13.6,22.2,8.1,-13.4,5.73,2.11,-10.4,28.4
2016-05-13 00:42:00,0.0,1.91487,0.00037,406.218,0.032,0.2864,0.0022,140.000,45.000,31800.31966,1.92029,407.629,37.688,45.069,45.000,0.00,0.09,-272.77,-272.82,-10,523,-950,22.1,8.0,-13.7,22.2,8.1,-13.4,5.73,1.74,-10.4,28.4
2016-05-13 00:43:00,0.0,1.91512,0.00033,406.204,0.033,0.2863,0.0026,139.999,45.000,31799.99368,1.92055,407.614,37.705,45.069,45.000,0.00,0.09,-272.78,-272.82,-8,523,-950,22.1,8.1,-13.6,22.3,8.1,-13.5,5.73,2.12,-10.4,28.4
2016-05-13 00:44:00,0.0,1.91505,0.00038,406.194,0.032,0.2900,0.0025,139.998,45.000,31799.43941,1.92057,407.620,37.730,45.069,45.000,0.00,0.09,-272.78,-272.84,-10,523,-950,22.1,8.1,-13.5,22.2,8.2,-13.4,5.73,1.74,-10.4,28.4
2016-05-13 00:45:00,0.0,1.91499,0.00038,406.187,0.031,0.2886,0.0022,140.000,45.000,31802.19739,1.92046,407.608,37.730,45.069,45.000,0.00,0.09,-272.77,-272.83,-9,523,-950,22.1,8.1,-13.5,22.2,8.2,-13.4,5.73,2.12,-10.4,28.4
2016-05-13 00:46:00,0.0,1.91516,0.00035,406.174,0.033,0.2873,0.0023,140.004,45.000,31802.99230,1.92062,407.588,37.735,45.069,45.000,0.00,0.09,-272.76,-272.83,-9,523,-950,22.2,8.1,-13.5,22.3,8.1,-13.4,5.73,1.73,-10.4,28.4
2016-05-13 00:47:00,0.0,1.91507,0.00038,406.178,0.026,0.2903,0.0019,140.003,45.000,31804.35506,1.92058,407.607,37.749,45.069,45.000,0.00,0.09,-272.77,-272.83,-10,523,-950,22.2,8.1,-13.5,22.3,8.2,-13.3,5.73,2.12,-10.4,28.4
2016-05-13 00:48:00,0.0,1.91522,0.00042,406.194,0.030,0.2908,0.0014,139.999,45.000,31801.04088,1.92075,407.626,37.750,45.069,45.000,0.00,0.09,-272.77,-272.83,-8,523,-950,22.2,8.1,-13.5,22.3,8.2,-13.3,5.73,1.73,-10.4,28.5
2016-05-13 00:49:00,0.0,1.91508,0.00033,406.199,0.035,0.2886,0.0015,140.001,45.000,31804.64237,1.92058,407.621,37.780,45.069,45.000,0.00,0.09,-272.77,-272.83,-10,523,-950,22.2,8.1,-13.5,22.3,8.1,-13.4,5.73,2.13,-10.4,28.4
2016-05-13 00:50:00,0.0,1.91506,0.00050,406.161,0.040,0.2908,0.0023,140.001,45.000,31804.34592,1.92058,407.592,37.813,45.069,45.000,0.00,0.09,-272.77,-272.83,-8,523,-950,22.2,8.2,-13.4,22.3,8.2,-13.3,5.73,1.73,-10.4,28.4
2016-05-13 00:51:00,0.0,1.91511,0.00037,406.168,0.036,0.2930,0.0029,140.001,45.000,31804.56149,1.92065,407.609,37.813,45.069,45.000,0.00,0.09,-272.77,-272.84,-10,523,-950,22.2,8.2,-13.4,22.3,8.2,-13.3,5.73,2.12,-10.4,28.4
2016-05-13 00:52:00,0.0,1.91503,0.00034,406.140,0.036,0.2977,0.0018,139.999,45.000,31805.76444,1.92071,407.606,37.824,45.069,45.000,0.00,0.09,-272.76,-272.84,-9,523,-950,22.2,8.3,-13.2,22.3,8.3,-13.1,5.73,1.73,-10.4,28.4
2016-05-13 00:53:00,0.0,1.91517,0.00037,406.177,0.031,0.2926,0.0044,140.001,45.000,31806.21222,1.92071,407.617,37.826,45.069,45.000,0.00,0.09,-272.77,-272.83,-9,523,-950,22.2,8.2,-13.4,22.3,8.3,-13.1,5.73,2.12,-10.4,28.5
2016-05-13 00:54:00,0.0,1.91528,0.00051,406.193,0.023,0.2933,0.0033,140.002,45.000,31806.79642,1.92088,407.636,37.814,45.069,45.000,0.00,0.09,-272.77,-272.84,-10,523,-950,22.2,8.2,-13.4,22.3,8.2,-13.2,5.73,1.74,-10.4,28.5
2016-05-13 00:55:00,0.0,1.91518,0.00033,406.208,0.041,0.2951,0.0022,139.998,45.000,31805.17268,1.92078,407.660,37.813,45.069,45.000,0.00,0.09,-272.77,-272.83,-9,523,-950,22.2,8.2,-13.3,22.3,8.3,-13.2,5.73,2.12,-10.4,28.5
2016-05-13 00:56:00,0.0,1.91500,0.00035,406.190,0.023,0.2934,0.0018,140.000,45.000,31809.51056,1.92059,407.635,37.813,45.069,45.000,0.00,0.09,-272.77,-272.82,-10,523,-950,22.2,8.2,-13.4,22.3,8.2,-13.2,5.73,1.73,-10.4,28.6
2016-05-13 00:57:00,0.0,1.91517,0.00046,406.198,0.029,0.2935,0.0019,140.004,45.000,31809.01450,1.92073,407.643,37.813,45.069,45.000,0.00,0.09,-272.78,-272.82,-8,523,-950,22.2,8.2,-13.3,22.3,8.2,-13.2,5.73,2.12,-10.4,28.6
2016-05-13 00:58:00,0.0,1.91534,0.00038,406.177,0.036,0.2935,0.0021,140.000,45.000,31808.61806,1.92090,407.622,37.813,45.069,45.000,0.00,0.09,-272.77,-272.83,-10,523,-950,22.3,8.2,-13.4,22.3,8.3,-13.1,5.73,1.74,-10.4,28.5
2016-05-13 00:59:00,0.0,1.91485,0.00041,406.168,0.035,0.2957,0.0032,139.999,45.000,31810.82445,1.92049,407.623,37.814,45.069,45.000,0.00,0.09,-272.77,-272.83,-9,523,-950,22.2,8.2,-13.3,22.3,8.2,-13.2,5.73,2.12,-10.4,28.6
2016-05-13 01:00:00,0.0,1.91475,0.00031,406.156,0.032,0.2933,0.0029,139.999,45.000,31811.46458,1.92032,407.602,37.832,45.069,45.000,0.00,0.09,-272.76,-272.83,-10,523,-950,22.2,8.1,-13.4,22.4,8.3,-13.1,5.73,1.74,-10.4,28.6
2016-05-13 01:01:00,0.0,1.91530,0.00035,406.197,0.025,0.2882,0.0021,140.001,45.000,31811.10952,1.92073,407.615,37.868,45.069,45.000,0.00,0.08,-272.78,-272.83,-9,523,-950,22.2,8.1,-13.5,22.4,8.1,-13.3,5.73,2.12,-10.4,28.6
2016-05-13 01:02:00,0.0,1.91521,0.00046,406.164,0.036,0.2936,0.0023,140.001,45.000,31811.78484,1.92082,407.610,37.874,45.069,45.000,0.00,0.09,-272.76,-272.82,-9,523,-950,22.2,8.1,-13.4,22.4,8.1,-13.3,5.73,1.73,-10.4,28.5
2016-05-13 01:03:00,0.0,1.91527,0.00032,406.181,0.040,0.2942,0.0024,139.998,45.000,31810.31133,1.92084,407.628,37.905,45.069,45.000,0.00,0.09,-272.77,-272.83,-10,523,-950,22.2,8.2,-13.3,22.4,8.2,-13.2,5.73,2.12,-10.4,28.6
2016-05-13 01:04:00,0.0,1.91511,0.00036,406.171,0.032,0.2922,0.0040,139.999,45.000,31813.09831,1.92067,407.610,37.904,45.069,45.000,0.00,0.09,-272.77,-272.83,-9,523,-950,22.3,8.1,-13.4,22.4,8.2,-13.2,5.73,1.74,-10.4,28.6
2016-05-13 01:05:00,0.0,1.91511,0.00031,406.190,0.029,0.2902,0.0034,140.001,45.000,31814.48701,1.92064,407.618,37.904,45.069,45.000,0.00,0.09,-272.78,-272.84,-10,523,-950,22.3,8.0,-13.5,22.4,8.1,-13.3,5.73,2.12,-10.4,28.6
2016-05-13 01:06:00,0.0,1.91488,0.00046,406.186,0.031,0.2952,0.0031,140.001,45.000,31814.64576,1.92049,407.641,37.933,45.069,45.000,0.00,0.09,-272.76,-272.83,-9,523,-950,22.3,8.2,-13.3,22.4,8.2,-13.2,5.73,1.74,-10.3,28.6
2016-05-13 01:07:00,0.0,1.91486,0.00051,406.173,0.044,0.2915,0.0045,140.002,45.000,31816.16775,1.92037,407.608,37.938,45.069,45.000,0.00,0.09,-272.77,-272.83,-10,523,-950,22.3,8.1,-13.4,22.4,8.2,-13.2,5.73,2.11,-10.3,28.7
2016-05-13 01:08:00,0.0,1.91520,0.00047,406.213,0.031,0.2824,0.0022,139.998,45.000,31815.65866,1.92056,407.604,37.938,45.069,45.000,0.00,0.09,-272.77,-272.84,-9,524,-950,22.3,7.8,-13.8,22.5,7.9,-13.5,5.73,1.74,-10.4,28.6
2016-05-13 01:09:00,0.0,1.91508,0.00033,406.206,0.039,0.2819,0.0028,140.001,45.000,31815.96831,1.92046,407.594,37.942,45.069,45.000,0.00,0.09,-272.77,-272.83,-10,523,-950,22.3,7.8,-13.9,22.5,7.9,-13.6,5.73,2.12,-10.3,28.6
2016-05-13 01:10:00,0.0,1.91506,0.00032,406.180,0.043,0.2869,0.0033,140.001,45.000,31818.26530,1.92049,407.591,37.957,45.069,45.000,0.00,0.09,-272.77,-272.83,-9,524,-950,22.3,7.9,-13.6,22.5,8.0,-13.5,5.73,1.73,-10.3,28.6
2016-05-13 01:11:00,0.0,1.91496,0.00031,406.183,0.040,0.2861,0.0019,140.001,45.000,31818.72605,1.92037,407.592,37.974,45.069,45.000,0.00,0.09,-272.78,-272.83,-9,523,-950,22.3,7.9,-13.7,22.5,8.0,-13.5,5.73,2.12,-10.3,28.7
2016-05-13 01:12:00,0.0,1.91517,0.00044,406.194,0.028,0.2875,0.0021,139.998,45.000,31817.94660,1.92062,407.609,37.991,45.069,45.000,0.00,0.09,-272.77,-272.83,-10,524,-950,22.3,7.9,-13.6,22.5,8.0,-13.5,5.73,1.74,-10.3,28.7
2016-05-13 01:13:00,0.0,1.91527,0.00039,406.148,0.032,0.2975,0.0030,139.998,45.000,31816.93955,1.92097,407.612,38.000,45.069,45.000,0.00,0.09,-272.77,-272.82,-9,523,-950,22.4,8.2,-13.2,22.5,8.1,-13.2,5.73,2.12,-10.3,28.7
2016-05-13 01:14:00,0.0,1.91500,0.00051,406.172,0.029,0.2943,0.0022,139.997,45.000,31818.65530,1.92059,407.621,38.000,45.069,45.000,0.00,0.09,-272.77,-272.83,-10,524,-950,22.4,8.1,-13.3,22.5,8.2,-13.1,5.73,1.73,-10.3,28.7
2016-05-13 01:15:00,0.0,1.91476,0.00027,406.198,0.036,0.2873,0.0044,140.003,45.000,31823.81921,1.92020,407.614,38.001,45.069,45.000,0.00,0.09,-272.77,-272.83,-9,523,-950,22.4,7.9,-13.6,22.5,8.1,-13.3,5.73,2.12,-10.3,28.7
2016-05-13 01:16:00,0.0,1.91520,0.00035,406.223,0.029,0.2802,0.0024,139.997,45.000,31820.27887,1.92051,407.602,38.003,45.069,45.000,0.00,0.09,-272.76,-272.83,-10,524,-950,22.4,7.7,-13.9,22.5,7.8,-13.7,5.73,1.73,-10.3,28.8
2016-05-13 01:17:00,0.0,1.91543,0.00045,406.242,0.040,0.2774,0.0017,140.002,45.000,31822.41369,1.92069,407.609,38.000,45.069,45.000,0.00,0.09,-272.77,-272.83,-9,524,-950,22.4,7.6,-14.1,22.5,7.7,-13.8,5.73,2.12,-10.3,28.7
2016-05-13 01:18:00,0.0,1.91517,0.00050,406.230,0.026,0.2876,0.0031,139.997,45.000,31821.18673,1.92065,407.644,38.000,45.069,45.001,0.00,0.09,-272.77,-272.83,-10,523,-950,22.4,7.9,-13.6,22.6,7.8,-13.6,5.73,1.73,-10.3,28.8
2016-05-13 01:19:00,0.0,1.91526,0.00031,406.209,0.028,0.2838,0.0030,139.999,45.000,31822.80932,1.92065,407.606,38.006,45.069,45.000,0.00,0.09,-272.77,-272.83,-10,524,-950,22.4,7.8,-13.7,22.6,7.9,-13.5,5.73,2.12,-10.3,28.8
2016-05-13 01:20:00,0.0,1.91512,0.00038,406.190,0.046,0.2856,0.0024,140.002,45.000,31823.47875,1.92058,407.597,38.041,45.069,45.000,0.00,0.09,-272.76,-272.83,-9,523,-950,22.4,7.9,-13.7,22.6,7.9,-13.5,5.73,1.73,-10.3,28.8
2016-05-13 01:21:00,0.0,1.91511,0.00031,406.183,0.024,0.2876,0.0031,139.999,45.000,31823.82896,1.92054,407.599,38.053,45.069,45.000,0.00,0.09,-272.78,-272.84,-10,524,-950,22.4,7.9,-13.6,22.6,7.9,-13.5,5.73,2.12,-10.3,28.8
2016-05-13 01:22:00,0.0,1.91501,0.00038,406.200,0.038,0.2810,0.0017,140.000,45.000,31825.84159,1.92034,407.583,38.045,45.069,45.000,0.00,0.09,-272.77,-272.83,-9,524,-950,22.4,7.7,-13.9,22.6,7.8,-13.6,5.73,1.73,-10.2,28.8
2016-05-13 01:23:00,0.0,1.91507,0.00037,406.206,0.029,0.2841,0.0032,139.997,45.000,31826.23275,1.92046,407.603,38.061,45.069,45.000,0.00,0.09,-272.77,-272.82,-11,524,-950,22.4,7.8,-13.7,22.6,7.8,-13.6,5.73,2.12,-10.2,28.8
2016-05-13 01:24:00,0.0,1.91517,0.00035,406.228,0.024,0.2828,0.0031,140.004,45.000,31828.80693,1.92054,407.621,38.063,45.069,45.000,0.00,0.09,-272.78,-272.83,-9,524,-950,22.5,7.8,-13.8,22.6,7.8,-13.6,5.73,1.74,-10.2,28.8
2016-05-13 01:25:00,0.0,1.91526,0.00035,406.246,0.030,0.2797,0.0022,140.000,45.000,31828.45073,1.92058,407.623,38.064,45.069,45.000,0.00,0.09,-272.78,-272.84,-11,524,-950,22.5,7.7,-13.9,22.6,7.8,-13.7,5.73,2.11,-10.2,28.8
2016-05-13 01:26:00,0.0,1.91529,0.00041,406.231,0.036,0.2782,0.0017,140.002,45.000,31829.77088,1.92057,407.601,38.064,45.069,45.000,0.00,0.09,-272.76,-272.83,-9,524,-950,22.5,7.6,-14.0,22.6,7.7,-13.8,5.73,1.74,-10.2,28.8
2016-05-13 01:27:00,0.0,1.91492,0.00035,406.207,0.036,0.2812,0.0031,139.999,45.000,31831.26343,1.92027,407.591,38.064,45.069,45.000,0.00,0.09,-272.77,-272.83,-10,524,-951,22.5,7.7,-13.9,22.6,7.7,-13.7,5.73,2.11,-10.2,28.8
2016-05-13 01:28:00,0.0,1.91492,0.00031,406.217,0.030,0.2822,0.0027,140.000,45.000,31831.09406,1.92026,407.606,38.063,45.069,45.000,0.00,0.09,-272.77,-272.83,-10,524,-950,22.5,7.7,-13.8,22.6,7.8,-13.7,5.73,1.74,-10.2,28.8
2016-05-13 01:29:00,0.0,1.91510,0.00030,406.233,0.035,0.2774,0.0015,139.998,45.000,31832.60504,1.92036,407.597,38.063,45.069,45.000,0.00,0.09,-272.77,-272.83,-10,524,-951,22.5,7.6,-13.9,22.6,7.7,-13.8,5.73,2.11,-10.2,28.9
2016-05-13 01:30:00,0.0,1.91515,0.00042,406.203,0.027,0.2848,0.0017,140.000,45.000,31832.89587,1.92058,407.606,38.073,45.069,45.001,0.00,0.09,-272.77,-272.83,-10,524,-951,22.5,7.8,-13.7,22.7,7.8,-13.6,5.73,1.74,-10.2,28.9
2016-05-13 01:31:00,0.0,1.91522,0.00048,406.223,0.043,0.2840,0.0025,140.000,45.000,31832.52041,1.92062,407.621,38.065,45.069,45.000,0.00,0.09,-272.78,-272.84,-9,524,-951,22.5,7.8,-13.7,22.7,7.8,-13.5,5.73,2.10,-10.2,28.9
2016-05-13 01:32:00,0.0,1.91526,0.00036,406.225,0.038,0.2800,0.0036,139.997,45.000,31830.95400,1.92055,407.603,38.064,45.069,45.000,0.00,0.09,-272.76,-272.83,-11,524,-951,22.5,7.7,-13.9,22.7,7.7,-13.7,5.73,1.76,-10.2,28.9
2016-05-13 01:33:00,0.0,1.91523,0.00036,406.246,0.024,0.2796,0.0020,140.000,45.000,31832.52205,1.92054,407.622,38.087,45.069,45.001,0.00,0.09,-272.76,-272.83,-9,524,-951,22.5,7.6,-14.0,22.7,7.7,-13.7,5.73,2.09,-10.2,28.9
2016-05-13 01:34:00,0.0,1.91515,0.00040,406.242,0.037,0.2795,0.0013,139.999,45.000,31832.86240,1.92045,407.616,38.127,45.069,45.000,0.00,0.09,-272.77,-272.83,-11,524,-951,22.6,7.6,-13.9,22.7,7.7,-13.7,5.73,1.77,-10.2,29.0
2016-05-13 01:35:00,0.0,1.91523,0.00039,406.241,0.039,0.2810,0.0022,140.001,45.000,31835.01977,1.92057,407.626,38.152,45.069,45.000,0.00,0.09,-272.77,-272.83,-9,524,-951,22.6,7.6,-13.9,22.7,7.7,-13.8,5.73,2.07,-10.2,28.9
2016-05-13 01:36:00,0.0,1.91499,0.00037,406.216,0.031,0.2827,0.0025,139.997,45.000,31836.28854,1.92037,407.608,38.182,45.069,45.000,0.00,0.09,-272.77,-272.82,-10,524,-951,22.6,7.7,-13.8,22.7,7.7,-13.7,5.73,1.78,-10.2,29.0
2016-05-13 01:37:00,0.0,1.91495,0.00040,406.197,0.036,0.2893,0.0026,139.998,45.000,31837.37525,1.92043,407.620,38.188,45.069,45.000,0.00,0.09,-272.77,-272.82,-10,524,-951,22.6,7.9,-13.5,22.8,7.8,-13.5,5.73,2.05,-10.2,29.0
2016-05-13 01:38:00,0.0,1.91505,0.00043,406.222,0.045,0.2811,0.0073,139.999,45.000,31838.27777,1.92039,407.608,38.188,45.068,44.999,0.00,0.09,-272.78,-272.83,-10,524,-951,22.6,7.7,-13.9,22.8,7.8,-13.5,5.73,1.80,-10.1,29.0
2016-05-13 01:39:00,0.0,1.91510,0.00034,406.215,0.034,0.2821,0.0041,140.000,45.000,31837.57959,1.92047,407.602,38.175,45.069,45.000,0.00,0.09,-272.77,-272.83,-10,524,-951,22.6,7.7,-13.9,22.8,7.7,-13.7,5.73,2.03,-10.1,29.0
2016-05-13 01:40:00,0.0,1.91507,0.00033,406.205,0.031,0.2811,0.0019,140.001,45.000,31838.79286,1.92041,407.589,38.163,45.069,45.000,0.00,0.09,-272.77,-272.82,-9,524,-951,22.6,7.6,-13.9,22.8,7.7,-13.6,5.73,1.83,-10.1,29.0
2016-05-13 01:41:00,0.0,1.91491,0.00043,406.217,0.045,0.2784,0.0025,139.999,45.000,31839.15053,1.92020,407.588,38.185,45.069,45.000,0.00,0.09,-272.77,-272.83,-10,524,-951,22.6,7.6,-14.0,22.8,7.6,-13.8,5.73,2.00,-10.1,29.0
2016-05-13 01:42:00,0.0,1.91484,0.00038,406.197,0.031,0.2837,0.0050,140.000,45.000,31840.31537,1.92021,407.592,38.181,45.069,45.000,0.00,0.09,-272.77,-272.83,-9,524,-951,22.6,7.7,-13.8,22.8,7.6,-13.8,5.73,1.86,-10.1,29.0
2016-05-13 01:43:00,0.0,1.91509,0.00041,406.204,0.040,0.2810,0.0022,139.999,45.000,31841.62244,1.92040,407.587,38.188,45.069,45.000,0.00,0.09,-272.77,-272.82,-11,524,-951,22.6,7.7,-13.8,22.8,7.7,-13.6,5.73,1.97,-10.1,29.0
2016-05-13 01:44:00,0.0,1.91515,0.00045,406.212,0.029,0.2809,0.0019,140.001,45.000,31842.36760,1.92048,407.595,38.210,45.069,45.000,0.00,0.09,-272.77,-272.83,-9,524,-951,22.7,7.6,-13.8,22.8,7.7,-13.7,5.73,1.90,-10.1,29.0
2016-05-13 01:45:00,0.0,1.91522,0.00033,406.212,0.027,0.2844,0.0017,140.000,45.000,31841.41009,1.92063,407.611,38.249,45.069,45.000,0.00,0.09,-272.77,-272.84,-11,524,-951,22.7,7.7,-13.7,22.8,7.7,-13.6,5.73,1.93,-10.1,29.0